Year,Month,Day,Hour,Minute,Value (Times are PST for temperature in C)
2008,09,15,00,00,12.60
2008,09,15,00,01,12.50
2008,09,15,00,02,12.50
2008,09,15,00,03,12.50
2008,09,15,00,04,12.50
2008,09,15,00,05,12.50
2008,09,15,00,06,12.50
2008,09,15,00,07,12.60
2008,09,15,00,08,12.60
2008,09,15,00,09,12.60
2008,09,15,00,10,12.60
2008,09,15,00,11,12.60
2008,09,15,00,12,12.60
2008,09,15,00,13,12.60
2008,09,15,00,14,12.60
2008,09,15,00,15,12.60
2008,09,15,00,16,12.60
2008,09,15,00,17,12.60
2008,09,15,00,18,12.60
2008,09,15,00,19,12.60
2008,09,15,00,20,12.60
2008,09,15,00,21,12.60
2008,09,15,00,22,12.60
2008,09,15,00,23,12.60
2008,09,15,00,24,12.60
2008,09,15,00,25,12.70
2008,09,15,00,26,12.70
2008,09,15,00,27,12.70
2008,09,15,00,28,12.70
2008,09,15,00,29,12.70
2008,09,15,00,30,12.70
2008,09,15,00,31,12.70
2008,09,15,00,32,12.70
2008,09,15,00,33,12.70
2008,09,15,00,34,12.70
2008,09,15,00,35,12.80
2008,09,15,00,36,12.80
2008,09,15,00,37,12.90
2008,09,15,00,38,13.00
2008,09,15,00,39,13.10
2008,09,15,00,40,13.10
2008,09,15,00,41,13.20
2008,09,15,00,42,13.30
2008,09,15,00,43,13.30
2008,09,15,00,44,13.30
2008,09,15,00,45,13.30
2008,09,15,00,46,13.40
2008,09,15,00,47,13.40
2008,09,15,00,48,13.30
2008,09,15,00,49,13.30
2008,09,15,00,50,13.40
2008,09,15,00,51,13.40
2008,09,15,00,52,13.40
2008,09,15,00,53,13.40
2008,09,15,00,54,13.40
2008,09,15,00,55,13.50
2008,09,15,00,56,13.50
2008,09,15,00,57,13.50
2008,09,15,00,58,13.50
2008,09,15,00,59,13.50
2008,09,15,01,00,13.40
2008,09,15,01,01,13.50
2008,09,15,01,02,13.50
2008,09,15,01,03,13.60
2008,09,15,01,04,13.70
2008,09,15,01,05,13.80
2008,09,15,01,06,13.90
2008,09,15,01,07,13.90
2008,09,15,01,08,13.90
2008,09,15,01,09,14.00
2008,09,15,01,10,14.10
2008,09,15,01,11,14.20
2008,09,15,01,12,14.30
2008,09,15,01,13,14.40
2008,09,15,01,14,14.50
2008,09,15,01,15,14.60
2008,09,15,01,16,14.60
2008,09,15,01,17,14.70
2008,09,15,01,18,14.90
2008,09,15,01,19,15.00
2008,09,15,01,20,15.00
2008,09,15,01,21,15.00
2008,09,15,01,22,15.00
2008,09,15,01,23,15.20
2008,09,15,01,24,15.30
2008,09,15,01,25,15.40
2008,09,15,01,26,15.50
2008,09,15,01,27,15.50
2008,09,15,01,28,15.60
2008,09,15,01,29,15.60
2008,09,15,01,30,15.70
2008,09,15,01,31,15.70
2008,09,15,01,32,15.80
2008,09,15,01,33,15.80
2008,09,15,01,34,15.80
2008,09,15,01,35,15.80
2008,09,15,01,36,15.90
2008,09,15,01,37,15.90
2008,09,15,01,38,15.90
2008,09,15,01,39,15.90
2008,09,15,01,40,16.00
2008,09,15,01,41,16.00
2008,09,15,01,42,16.00
2008,09,15,01,43,16.10
2008,09,15,01,44,16.20
2008,09,15,01,45,16.20
2008,09,15,01,46,16.20
2008,09,15,01,47,16.30
2008,09,15,01,48,16.30
2008,09,15,01,49,16.30
2008,09,15,01,50,16.30
2008,09,15,01,51,16.40
2008,09,15,01,52,16.40
2008,09,15,01,53,16.40
2008,09,15,01,54,16.40
2008,09,15,01,55,16.50
2008,09,15,01,56,16.50
2008,09,15,01,57,16.50
2008,09,15,01,58,16.50
2008,09,15,01,59,16.50
2008,09,15,02,00,16.60
2008,09,15,02,01,16.60
2008,09,15,02,02,16.60
2008,09,15,02,03,16.60
2008,09,15,02,04,16.60
2008,09,15,02,05,16.60
2008,09,15,02,06,16.60
2008,09,15,02,07,16.60
2008,09,15,02,08,16.50
2008,09,15,02,09,16.50
2008,09,15,02,10,16.50
2008,09,15,02,11,16.50
2008,09,15,02,12,16.40
2008,09,15,02,13,16.40
2008,09,15,02,14,16.40
2008,09,15,02,15,16.40
2008,09,15,02,16,16.40
2008,09,15,02,17,16.30
2008,09,15,02,18,16.30
2008,09,15,02,19,16.30
2008,09,15,02,20,16.20
2008,09,15,02,21,16.20
2008,09,15,02,22,16.10
2008,09,15,02,23,16.00
2008,09,15,02,24,16.00
2008,09,15,02,25,15.90
2008,09,15,02,26,15.90
2008,09,15,02,27,15.80
2008,09,15,02,28,15.80
2008,09,15,02,29,15.70
2008,09,15,02,30,15.70
2008,09,15,02,31,15.60
2008,09,15,02,32,15.60
2008,09,15,02,33,15.50
2008,09,15,02,34,15.50
2008,09,15,02,35,15.40
2008,09,15,02,36,15.40
2008,09,15,02,37,15.40
2008,09,15,02,38,15.30
2008,09,15,02,39,15.30
2008,09,15,02,40,15.30
2008,09,15,02,41,15.30
2008,09,15,02,42,15.30
2008,09,15,02,43,15.30
2008,09,15,02,44,15.30
2008,09,15,02,45,15.30
2008,09,15,02,46,15.30
2008,09,15,02,47,15.30
2008,09,15,02,48,15.30
2008,09,15,02,49,15.30
2008,09,15,02,50,15.30
2008,09,15,02,51,15.20
2008,09,15,02,52,15.20
2008,09,15,02,53,15.20
2008,09,15,02,54,15.10
2008,09,15,02,55,15.00
2008,09,15,02,56,15.00
2008,09,15,02,57,15.00
2008,09,15,02,58,15.00
2008,09,15,02,59,15.00
2008,09,15,03,00,14.90
2008,09,15,03,01,14.80
2008,09,15,03,02,14.80
2008,09,15,03,03,14.70
2008,09,15,03,04,14.70
2008,09,15,03,05,14.60
2008,09,15,03,06,14.60
2008,09,15,03,07,14.60
2008,09,15,03,08,14.50
2008,09,15,03,09,14.40
2008,09,15,03,10,14.40
2008,09,15,03,11,14.40
2008,09,15,03,12,14.30
2008,09,15,03,13,14.30
2008,09,15,03,14,14.30
2008,09,15,03,15,14.20
2008,09,15,03,16,14.20
2008,09,15,03,17,14.10
2008,09,15,03,18,14.10
2008,09,15,03,19,14.00
2008,09,15,03,20,14.00
2008,09,15,03,21,13.90
2008,09,15,03,22,13.90
2008,09,15,03,23,13.90
2008,09,15,03,24,13.80
2008,09,15,03,25,13.80
2008,09,15,03,26,13.80
2008,09,15,03,27,13.80
2008,09,15,03,28,13.80
2008,09,15,03,29,13.70
2008,09,15,03,30,13.70
2008,09,15,03,31,13.70
2008,09,15,03,32,13.70
2008,09,15,03,33,13.70
2008,09,15,03,34,13.70
2008,09,15,03,35,13.70
2008,09,15,03,36,13.70
2008,09,15,03,37,13.60
2008,09,15,03,38,13.60
2008,09,15,03,39,13.60
2008,09,15,03,40,13.60
2008,09,15,03,41,13.60
2008,09,15,03,42,13.60
2008,09,15,03,43,13.60
2008,09,15,03,44,13.60
2008,09,15,03,45,13.60
2008,09,15,03,46,13.60
2008,09,15,03,47,13.60
2008,09,15,03,48,13.60
2008,09,15,03,49,13.60
2008,09,15,03,50,13.50
2008,09,15,03,51,13.50
2008,09,15,03,52,13.50
2008,09,15,03,53,13.50
2008,09,15,03,54,13.40
2008,09,15,03,55,13.40
2008,09,15,03,56,13.40
2008,09,15,03,57,13.40
2008,09,15,03,58,13.30
2008,09,15,03,59,13.30
2008,09,15,04,00,13.30
2008,09,15,04,01,13.30
2008,09,15,04,02,13.30
2008,09,15,04,03,13.30
2008,09,15,04,04,13.30
2008,09,15,04,05,13.30
2008,09,15,04,06,13.30
2008,09,15,04,07,13.30
2008,09,15,04,08,13.20
2008,09,15,04,09,13.20
2008,09,15,04,10,13.20
2008,09,15,04,11,13.20
2008,09,15,04,12,13.10
2008,09,15,04,13,13.10
2008,09,15,04,14,13.10
2008,09,15,04,15,13.10
2008,09,15,04,16,13.10
2008,09,15,04,17,13.10
2008,09,15,04,18,13.00
2008,09,15,04,19,13.00
2008,09,15,04,20,13.00
2008,09,15,04,21,12.90
2008,09,15,04,22,12.90
2008,09,15,04,23,12.90
2008,09,15,04,24,12.80
2008,09,15,04,25,12.80
2008,09,15,04,26,12.80
2008,09,15,04,27,12.80
2008,09,15,04,28,12.80
2008,09,15,04,29,12.70
2008,09,15,04,30,12.70
2008,09,15,04,31,12.70
2008,09,15,04,32,12.70
2008,09,15,04,33,12.70
2008,09,15,04,34,12.70
2008,09,15,04,35,12.70
2008,09,15,04,36,12.70
2008,09,15,04,37,12.60
2008,09,15,04,38,12.60
2008,09,15,04,39,12.60
2008,09,15,04,40,12.60
2008,09,15,04,41,12.60
2008,09,15,04,42,12.50
2008,09,15,04,43,12.50
2008,09,15,04,44,12.50
2008,09,15,04,45,12.50
2008,09,15,04,46,12.40
2008,09,15,04,47,12.40
2008,09,15,04,48,12.40
2008,09,15,04,49,12.40
2008,09,15,04,50,12.30
2008,09,15,04,51,12.30
2008,09,15,04,52,12.30
2008,09,15,04,53,12.30
2008,09,15,04,54,12.30
2008,09,15,04,55,12.30
2008,09,15,04,56,12.20
2008,09,15,04,57,12.20
2008,09,15,04,58,12.20
2008,09,15,04,59,12.20
2008,09,15,05,00,12.20
2008,09,15,05,01,12.10
2008,09,15,05,02,12.10
2008,09,15,05,03,12.10
2008,09,15,05,04,12.10
2008,09,15,05,05,12.10
2008,09,15,05,06,12.10
2008,09,15,05,07,12.10
2008,09,15,05,08,12.10
2008,09,15,05,09,12.10
2008,09,15,05,10,12.10
2008,09,15,05,11,12.10
2008,09,15,05,12,12.10
2008,09,15,05,13,12.10
2008,09,15,05,14,12.10
2008,09,15,05,15,12.10
2008,09,15,05,16,12.10
2008,09,15,05,17,12.10
2008,09,15,05,18,12.10
2008,09,15,05,19,12.00
2008,09,15,05,20,12.00
2008,09,15,05,21,12.00
2008,09,15,05,22,11.90
2008,09,15,05,23,11.90
2008,09,15,05,24,11.90
2008,09,15,05,25,11.90
2008,09,15,05,26,11.80
2008,09,15,05,27,11.80
2008,09,15,05,28,11.80
2008,09,15,05,29,11.80
2008,09,15,05,30,11.80
2008,09,15,05,31,11.80
2008,09,15,05,32,11.80
2008,09,15,05,33,11.80
2008,09,15,05,34,11.80
2008,09,15,05,35,11.90
2008,09,15,05,36,11.90
2008,09,15,05,37,11.90
2008,09,15,05,38,11.90
2008,09,15,05,39,11.90
2008,09,15,05,40,11.90
2008,09,15,05,41,11.90
2008,09,15,05,42,11.90
2008,09,15,05,43,11.90
2008,09,15,05,44,11.90
2008,09,15,05,45,11.90
2008,09,15,05,46,11.90
2008,09,15,05,47,11.90
2008,09,15,05,48,11.90
2008,09,15,05,49,11.80
2008,09,15,05,50,11.80
2008,09,15,05,51,11.80
2008,09,15,05,52,11.80
2008,09,15,05,53,11.80
2008,09,15,05,54,11.80
2008,09,15,05,55,11.80
2008,09,15,05,56,11.80
2008,09,15,05,57,11.70
2008,09,15,05,58,11.70
2008,09,15,05,59,11.70
2008,09,15,06,00,11.70
2008,09,15,06,01,11.70
2008,09,15,06,02,11.70
2008,09,15,06,03,11.70
2008,09,15,06,04,11.70
2008,09,15,06,05,11.70
2008,09,15,06,06,11.70
2008,09,15,06,07,11.70
2008,09,15,06,08,11.70
2008,09,15,06,09,11.70
2008,09,15,06,10,11.70
2008,09,15,06,11,11.70
2008,09,15,06,12,11.70
2008,09,15,06,13,11.70
2008,09,15,06,14,11.70
2008,09,15,06,15,11.70
2008,09,15,06,16,11.70
2008,09,15,06,17,11.70
2008,09,15,06,18,11.70
2008,09,15,06,19,11.70
2008,09,15,06,20,11.70
2008,09,15,06,21,11.70
2008,09,15,06,22,11.70
2008,09,15,06,23,11.70
2008,09,15,06,24,11.70
2008,09,15,06,25,11.70
2008,09,15,06,26,11.70
2008,09,15,06,27,11.80
2008,09,15,06,28,11.80
2008,09,15,06,29,11.80
2008,09,15,06,30,11.90
2008,09,15,06,31,12.00
2008,09,15,06,32,12.00
2008,09,15,06,33,12.10
2008,09,15,06,34,12.10
2008,09,15,06,35,12.10
2008,09,15,06,36,12.10
2008,09,15,06,37,12.10
2008,09,15,06,38,12.20
2008,09,15,06,39,12.20
2008,09,15,06,40,12.20
2008,09,15,06,41,12.20
2008,09,15,06,42,12.20
2008,09,15,06,43,12.10
2008,09,15,06,44,12.10
2008,09,15,06,45,12.10
2008,09,15,06,46,12.10
2008,09,15,06,47,12.10
2008,09,15,06,48,12.00
2008,09,15,06,49,12.00
2008,09,15,06,50,12.00
2008,09,15,06,51,12.00
2008,09,15,06,52,12.00
2008,09,15,06,53,12.00
2008,09,15,06,54,12.00
2008,09,15,06,55,12.10
2008,09,15,06,56,12.00
2008,09,15,06,57,12.00
2008,09,15,06,58,12.00
2008,09,15,06,59,12.00
2008,09,15,07,00,12.10
2008,09,15,07,01,12.10
2008,09,15,07,02,12.10
2008,09,15,07,03,12.10
2008,09,15,07,04,12.10
2008,09,15,07,05,12.10
2008,09,15,07,06,12.10
2008,09,15,07,07,12.10
2008,09,15,07,08,12.10
2008,09,15,07,09,12.10
2008,09,15,07,10,12.10
2008,09,15,07,11,12.10
2008,09,15,07,12,12.20
2008,09,15,07,13,12.20
2008,09,15,07,14,12.20
2008,09,15,07,15,12.30
2008,09,15,07,16,12.30
2008,09,15,07,17,12.30
2008,09,15,07,18,12.40
2008,09,15,07,19,12.50
2008,09,15,07,20,12.50
2008,09,15,07,21,12.60
2008,09,15,07,22,12.60
2008,09,15,07,23,12.60
2008,09,15,07,24,12.60
2008,09,15,07,25,12.70
2008,09,15,07,26,12.70
2008,09,15,07,27,12.70
2008,09,15,07,28,12.70
2008,09,15,07,29,12.70
2008,09,15,07,30,12.70
2008,09,15,07,31,12.80
2008,09,15,07,32,12.80
2008,09,15,07,33,12.80
2008,09,15,07,34,12.80
2008,09,15,07,35,12.80
2008,09,15,07,36,12.80
2008,09,15,07,37,12.80
2008,09,15,07,38,12.90
2008,09,15,07,39,12.90
2008,09,15,07,40,12.90
2008,09,15,07,41,12.90
2008,09,15,07,42,12.90
2008,09,15,07,43,13.00
2008,09,15,07,44,13.10
2008,09,15,07,45,13.10
2008,09,15,07,46,13.20
2008,09,15,07,47,13.20
2008,09,15,07,48,13.30
2008,09,15,07,49,13.30
2008,09,15,07,50,13.40
2008,09,15,07,51,13.50
2008,09,15,07,52,13.50
2008,09,15,07,53,13.60
2008,09,15,07,54,13.70
2008,09,15,07,55,13.70
2008,09,15,07,56,13.70
2008,09,15,07,57,13.80
2008,09,15,07,58,13.90
2008,09,15,07,59,14.00
2008,09,15,08,00,14.00
2008,09,15,08,01,14.10
2008,09,15,08,02,14.10
2008,09,15,08,03,14.20
2008,09,15,08,04,14.30
2008,09,15,08,05,14.30
2008,09,15,08,06,14.40
2008,09,15,08,07,14.40
2008,09,15,08,08,14.50
2008,09,15,08,09,14.60
2008,09,15,08,10,14.60
2008,09,15,08,11,14.70
2008,09,15,08,12,14.80
2008,09,15,08,13,14.90
2008,09,15,08,14,15.00
2008,09,15,08,15,15.00
2008,09,15,08,16,15.00
2008,09,15,08,17,15.00
2008,09,15,08,18,15.00
2008,09,15,08,19,15.00
2008,09,15,08,20,15.00
2008,09,15,08,21,15.10
2008,09,15,08,22,15.20
2008,09,15,08,23,15.30
2008,09,15,08,24,15.40
2008,09,15,08,25,15.50
2008,09,15,08,26,15.60
2008,09,15,08,27,15.70
2008,09,15,08,28,15.80
2008,09,15,08,29,15.90
2008,09,15,08,30,16.00
2008,09,15,08,31,16.00
2008,09,15,08,32,16.20
2008,09,15,08,33,16.20
2008,09,15,08,34,16.30
2008,09,15,08,35,16.30
2008,09,15,08,36,16.40
2008,09,15,08,37,16.40
2008,09,15,08,38,16.40
2008,09,15,08,39,16.40
2008,09,15,08,40,16.40
2008,09,15,08,41,16.40
2008,09,15,08,42,16.30
2008,09,15,08,43,16.30
2008,09,15,08,44,16.30
2008,09,15,08,45,16.30
2008,09,15,08,46,16.40
2008,09,15,08,47,16.40
2008,09,15,08,48,16.40
2008,09,15,08,49,16.40
2008,09,15,08,50,16.40
2008,09,15,08,51,16.40
2008,09,15,08,52,16.40
2008,09,15,08,53,16.40
2008,09,15,08,54,16.50
2008,09,15,08,55,16.50
2008,09,15,08,56,16.50
2008,09,15,08,57,16.50
2008,09,15,08,58,16.60
2008,09,15,08,59,16.70
2008,09,15,09,00,16.70
2008,09,15,09,01,16.80
2008,09,15,09,02,16.90
2008,09,15,09,03,16.90
2008,09,15,09,04,17.00
2008,09,15,09,05,17.10
2008,09,15,09,06,17.20
2008,09,15,09,07,17.30
2008,09,15,09,08,17.50
2008,09,15,09,09,17.60
2008,09,15,09,10,17.70
2008,09,15,09,11,17.80
2008,09,15,09,12,17.80
2008,09,15,09,13,17.90
2008,09,15,09,14,18.00
2008,09,15,09,15,18.10
2008,09,15,09,16,18.20
2008,09,15,09,17,18.30
2008,09,15,09,18,18.40
2008,09,15,09,19,18.50
2008,09,15,09,20,18.60
2008,09,15,09,21,18.70
2008,09,15,09,22,18.80
2008,09,15,09,23,18.90
2008,09,15,09,24,18.90
2008,09,15,09,25,19.00
2008,09,15,09,26,19.10
2008,09,15,09,27,19.10
2008,09,15,09,28,19.20
2008,09,15,09,29,19.10
2008,09,15,09,30,19.10
2008,09,15,09,31,19.10
2008,09,15,09,32,19.10
2008,09,15,09,33,19.10
2008,09,15,09,34,19.10
2008,09,15,09,35,19.10
2008,09,15,09,36,19.20
2008,09,15,09,37,19.20
2008,09,15,09,38,19.30
2008,09,15,09,39,19.30
2008,09,15,09,40,19.40
2008,09,15,09,41,19.40
2008,09,15,09,42,19.50
2008,09,15,09,43,19.50
2008,09,15,09,44,19.50
2008,09,15,09,45,19.50
2008,09,15,09,46,19.50
2008,09,15,09,47,19.50
2008,09,15,09,48,19.50
2008,09,15,09,49,19.40
2008,09,15,09,50,19.40
2008,09,15,09,51,19.30
2008,09,15,09,52,19.30
2008,09,15,09,53,19.30
2008,09,15,09,54,19.20
2008,09,15,09,55,19.10
2008,09,15,09,56,19.10
2008,09,15,09,57,19.00
2008,09,15,09,58,19.00
2008,09,15,09,59,19.00
2008,09,15,10,00,19.00
2008,09,15,10,01,19.00
2008,09,15,10,02,19.00
2008,09,15,10,03,19.00
2008,09,15,10,04,19.10
2008,09,15,10,05,19.10
2008,09,15,10,06,19.20
2008,09,15,10,07,19.30
2008,09,15,10,08,19.30
2008,09,15,10,09,19.40
2008,09,15,10,10,19.40
2008,09,15,10,11,19.40
2008,09,15,10,12,19.50
2008,09,15,10,13,19.50
2008,09,15,10,14,19.50
2008,09,15,10,15,19.60
2008,09,15,10,16,19.60
2008,09,15,10,17,19.70
2008,09,15,10,18,19.70
2008,09,15,10,19,19.80
2008,09,15,10,20,19.80
2008,09,15,10,21,19.80
2008,09,15,10,22,19.90
2008,09,15,10,23,19.90
2008,09,15,10,24,20.00
2008,09,15,10,25,20.00
2008,09,15,10,26,20.00
2008,09,15,10,27,20.10
2008,09,15,10,28,20.10
2008,09,15,10,29,20.10
2008,09,15,10,30,20.00
2008,09,15,10,31,20.00
2008,09,15,10,32,20.10
2008,09,15,10,33,20.10
2008,09,15,10,34,20.10
2008,09,15,10,35,20.10
2008,09,15,10,36,20.10
2008,09,15,10,37,20.10
2008,09,15,10,38,20.10
2008,09,15,10,39,20.20
2008,09,15,10,40,20.20
2008,09,15,10,41,20.20
2008,09,15,10,42,20.20
2008,09,15,10,43,20.20
2008,09,15,10,44,20.20
2008,09,15,10,45,20.20
2008,09,15,10,46,20.20
2008,09,15,10,47,20.30
2008,09,15,10,48,20.30
2008,09,15,10,49,20.40
2008,09,15,10,50,20.50
2008,09,15,10,51,20.60
2008,09,15,10,52,20.70
2008,09,15,10,53,20.80
2008,09,15,10,54,20.80
2008,09,15,10,55,20.80
2008,09,15,10,56,20.90
2008,09,15,10,57,20.90
2008,09,15,10,58,21.00
2008,09,15,10,59,21.10
2008,09,15,11,00,21.10
2008,09,15,11,01,21.10
2008,09,15,11,02,21.20
2008,09,15,11,03,21.20
2008,09,15,11,04,21.30
2008,09,15,11,05,21.40
2008,09,15,11,06,21.40
2008,09,15,11,07,21.50
2008,09,15,11,08,21.50
2008,09,15,11,09,21.60
2008,09,15,11,10,21.60
2008,09,15,11,11,21.70
2008,09,15,11,12,21.70
2008,09,15,11,13,21.70
2008,09,15,11,14,21.60
2008,09,15,11,15,21.60
2008,09,15,11,16,21.60
2008,09,15,11,17,21.70
2008,09,15,11,18,21.70
2008,09,15,11,19,21.70
2008,09,15,11,20,21.70
2008,09,15,11,21,21.70
2008,09,15,11,22,21.70
2008,09,15,11,23,21.80
2008,09,15,11,24,21.80
2008,09,15,11,25,21.90
2008,09,15,11,26,21.90
2008,09,15,11,27,22.00
2008,09,15,11,28,22.10
2008,09,15,11,29,22.10
2008,09,15,11,30,22.20
2008,09,15,11,31,22.20
2008,09,15,11,32,22.20
2008,09,15,11,33,22.30
2008,09,15,11,34,22.30
2008,09,15,11,35,22.30
2008,09,15,11,36,22.30
2008,09,15,11,37,22.30
2008,09,15,11,38,22.30
2008,09,15,11,39,22.20
2008,09,15,11,40,22.20
2008,09,15,11,41,22.10
2008,09,15,11,42,22.10
2008,09,15,11,43,22.10
2008,09,15,11,44,22.10
2008,09,15,11,45,22.10
2008,09,15,11,46,22.00
2008,09,15,11,47,21.90
2008,09,15,11,48,21.90
2008,09,15,11,49,21.80
2008,09,15,11,50,21.80
2008,09,15,11,51,21.80
2008,09,15,11,52,21.80
2008,09,15,11,53,21.80
2008,09,15,11,54,21.90
2008,09,15,11,55,21.90
2008,09,15,11,56,22.00
2008,09,15,11,57,22.00
2008,09,15,11,58,22.00
2008,09,15,11,59,22.10
2008,09,15,12,00,22.10
2008,09,15,12,01,22.10
2008,09,15,12,02,22.10
2008,09,15,12,03,22.00
2008,09,15,12,04,22.00
2008,09,15,12,05,21.90
2008,09,15,12,06,22.00
2008,09,15,12,07,22.00
2008,09,15,12,08,22.10
2008,09,15,12,09,22.10
2008,09,15,12,10,22.00
2008,09,15,12,11,22.00
2008,09,15,12,12,21.90
2008,09,15,12,13,22.00
2008,09,15,12,14,22.00
2008,09,15,12,15,22.10
2008,09,15,12,16,22.20
2008,09,15,12,17,22.20
2008,09,15,12,18,22.30
2008,09,15,12,19,22.30
2008,09,15,12,20,22.40
2008,09,15,12,21,22.40
2008,09,15,12,22,22.50
2008,09,15,12,23,22.50
2008,09,15,12,24,22.60
2008,09,15,12,25,22.50
2008,09,15,12,26,22.60
2008,09,15,12,27,22.60
2008,09,15,12,28,22.70
2008,09,15,12,29,22.70
2008,09,15,12,30,22.70
2008,09,15,12,31,22.70
2008,09,15,12,32,22.70
2008,09,15,12,33,22.70
2008,09,15,12,34,22.80
2008,09,15,12,35,22.80
2008,09,15,12,36,22.80
2008,09,15,12,37,22.80
2008,09,15,12,38,22.80
2008,09,15,12,39,22.80
2008,09,15,12,40,22.70
2008,09,15,12,41,22.60
2008,09,15,12,42,22.60
2008,09,15,12,43,22.70
2008,09,15,12,44,22.80
2008,09,15,12,45,22.80
2008,09,15,12,46,22.90
2008,09,15,12,47,22.90
2008,09,15,12,48,22.90
2008,09,15,12,49,23.00
2008,09,15,12,50,23.00
2008,09,15,12,51,23.10
2008,09,15,12,52,23.10
2008,09,15,12,53,23.00
2008,09,15,12,54,23.00
2008,09,15,12,55,23.00
2008,09,15,12,56,23.00
2008,09,15,12,57,23.00
2008,09,15,12,58,23.00
2008,09,15,12,59,23.10
2008,09,15,13,00,23.10
2008,09,15,13,01,23.20
2008,09,15,13,02,23.20
2008,09,15,13,03,23.30
2008,09,15,13,04,23.30
2008,09,15,13,05,23.30
2008,09,15,13,06,23.20
2008,09,15,13,07,23.20
2008,09,15,13,08,23.10
2008,09,15,13,09,23.10
2008,09,15,13,10,23.10
2008,09,15,13,11,23.20
2008,09,15,13,12,23.20
2008,09,15,13,13,23.20
2008,09,15,13,14,23.30
2008,09,15,13,15,23.40
2008,09,15,13,16,23.40
2008,09,15,13,17,23.50
2008,09,15,13,18,23.50
2008,09,15,13,19,23.50
2008,09,15,13,20,23.60
2008,09,15,13,21,23.70
2008,09,15,13,22,23.70
2008,09,15,13,23,23.70
2008,09,15,13,24,23.60
2008,09,15,13,25,23.60
2008,09,15,13,26,23.70
2008,09,15,13,27,23.70
2008,09,15,13,28,23.70
2008,09,15,13,29,23.70
2008,09,15,13,30,23.70
2008,09,15,13,31,23.70
2008,09,15,13,32,23.70
2008,09,15,13,33,23.70
2008,09,15,13,34,23.70
2008,09,15,13,35,23.70
2008,09,15,13,36,23.70
2008,09,15,13,37,23.70
2008,09,15,13,38,23.80
2008,09,15,13,39,23.90
2008,09,15,13,40,24.00
2008,09,15,13,41,24.10
2008,09,15,13,42,24.10
2008,09,15,13,43,24.10
2008,09,15,13,44,24.20
2008,09,15,13,45,24.20
2008,09,15,13,46,24.20
2008,09,15,13,47,24.20
2008,09,15,13,48,24.20
2008,09,15,13,49,24.10
2008,09,15,13,50,23.80
2008,09,15,13,51,23.60
2008,09,15,13,52,23.40
2008,09,15,13,53,23.20
2008,09,15,13,54,23.00
2008,09,15,13,55,23.00
2008,09,15,13,56,22.90
2008,09,15,13,57,23.00
2008,09,15,13,58,23.00
2008,09,15,13,59,23.10
2008,09,15,14,00,23.20
2008,09,15,14,01,23.30
2008,09,15,14,02,23.40
2008,09,15,14,03,23.50
2008,09,15,14,04,23.60
2008,09,15,14,05,23.50
2008,09,15,14,06,23.50
2008,09,15,14,07,23.40
2008,09,15,14,08,23.40
2008,09,15,14,09,23.40
2008,09,15,14,10,23.20
2008,09,15,14,11,23.10
2008,09,15,14,12,23.10
2008,09,15,14,13,23.10
2008,09,15,14,14,23.10
2008,09,15,14,15,23.10
2008,09,15,14,16,23.20
2008,09,15,14,17,23.20
2008,09,15,14,18,23.20
2008,09,15,14,19,23.30
2008,09,15,14,20,23.30
2008,09,15,14,21,23.30
2008,09,15,14,22,23.30
2008,09,15,14,23,23.30
2008,09,15,14,24,23.30
2008,09,15,14,25,23.30
2008,09,15,14,26,23.20
2008,09,15,14,27,23.20
2008,09,15,14,28,23.20
2008,09,15,14,29,23.30
2008,09,15,14,30,23.30
2008,09,15,14,31,23.30
2008,09,15,14,32,23.40
2008,09,15,14,33,23.40
2008,09,15,14,34,23.40
2008,09,15,14,35,23.40
2008,09,15,14,36,23.40
2008,09,15,14,37,23.40
2008,09,15,14,38,23.40
2008,09,15,14,39,23.30
2008,09,15,14,40,23.40
2008,09,15,14,41,23.30
2008,09,15,14,42,23.30
2008,09,15,14,43,23.40
2008,09,15,14,44,23.40
2008,09,15,14,45,23.30
2008,09,15,14,46,23.30
2008,09,15,14,47,23.40
2008,09,15,14,48,23.40
2008,09,15,14,49,23.50
2008,09,15,14,50,23.50
2008,09,15,14,51,23.50
2008,09,15,14,52,23.50
2008,09,15,14,53,23.40
2008,09,15,14,54,23.50
2008,09,15,14,55,23.50
2008,09,15,14,56,23.50
2008,09,15,14,57,23.50
2008,09,15,14,58,23.60
2008,09,15,14,59,23.50
2008,09,15,15,00,23.50
2008,09,15,15,01,23.60
2008,09,15,15,02,23.60
2008,09,15,15,03,23.70
2008,09,15,15,04,23.70
2008,09,15,15,05,23.60
2008,09,15,15,06,23.60
2008,09,15,15,07,23.60
2008,09,15,15,08,23.60
2008,09,15,15,09,23.60
2008,09,15,15,10,23.60
2008,09,15,15,11,23.50
2008,09,15,15,12,23.50
2008,09,15,15,13,23.60
2008,09,15,15,14,23.60
2008,09,15,15,15,23.60
2008,09,15,15,16,23.60
2008,09,15,15,17,23.60
2008,09,15,15,18,23.60
2008,09,15,15,19,23.60
2008,09,15,15,20,23.60
2008,09,15,15,21,23.60
2008,09,15,15,22,23.50
2008,09,15,15,23,23.50
2008,09,15,15,24,23.60
2008,09,15,15,25,23.60
2008,09,15,15,26,23.60
2008,09,15,15,27,23.60
2008,09,15,15,28,23.60
2008,09,15,15,29,23.50
2008,09,15,15,30,23.40
2008,09,15,15,31,23.40
2008,09,15,15,32,23.30
2008,09,15,15,33,23.30
2008,09,15,15,34,23.30
2008,09,15,15,35,23.40
2008,09,15,15,36,23.30
2008,09,15,15,37,23.30
2008,09,15,15,38,23.20
2008,09,15,15,39,23.20
2008,09,15,15,40,23.20
2008,09,15,15,41,23.20
2008,09,15,15,42,23.20
2008,09,15,15,43,23.10
2008,09,15,15,44,23.10
2008,09,15,15,45,23.10
2008,09,15,15,46,23.10
2008,09,15,15,47,23.00
2008,09,15,15,48,23.00
2008,09,15,15,49,23.00
2008,09,15,15,50,23.00
2008,09,15,15,51,22.90
2008,09,15,15,52,22.90
2008,09,15,15,53,23.00
2008,09,15,15,54,22.90
2008,09,15,15,55,22.90
2008,09,15,15,56,22.90
2008,09,15,15,57,23.00
2008,09,15,15,58,23.10
2008,09,15,15,59,23.10
2008,09,15,16,00,23.10
2008,09,15,16,01,23.10
2008,09,15,16,02,23.10
2008,09,15,16,03,23.00
2008,09,15,16,04,22.90
2008,09,15,16,05,22.90
2008,09,15,16,06,22.90
2008,09,15,16,07,22.80
2008,09,15,16,08,22.80
2008,09,15,16,09,22.80
2008,09,15,16,10,22.90
2008,09,15,16,11,22.90
2008,09,15,16,12,22.90
2008,09,15,16,13,22.90
2008,09,15,16,14,22.90
2008,09,15,16,15,23.00
2008,09,15,16,16,23.00
2008,09,15,16,17,23.00
2008,09,15,16,18,23.00
2008,09,15,16,19,23.00
2008,09,15,16,20,23.10
2008,09,15,16,21,23.10
2008,09,15,16,22,23.10
2008,09,15,16,23,23.10
2008,09,15,16,24,23.10
2008,09,15,16,25,23.10
2008,09,15,16,26,23.10
2008,09,15,16,27,23.10
2008,09,15,16,28,23.10
2008,09,15,16,29,23.10
2008,09,15,16,30,23.10
2008,09,15,16,31,23.10
2008,09,15,16,32,23.10
2008,09,15,16,33,23.10
2008,09,15,16,34,23.10
2008,09,15,16,35,23.10
2008,09,15,16,36,23.10
2008,09,15,16,37,23.10
2008,09,15,16,38,23.10
2008,09,15,16,39,23.10
2008,09,15,16,40,23.10
2008,09,15,16,41,23.10
2008,09,15,16,42,23.10
2008,09,15,16,43,23.10
2008,09,15,16,44,23.10
2008,09,15,16,45,23.10
2008,09,15,16,46,23.10
2008,09,15,16,47,23.20
2008,09,15,16,48,23.20
2008,09,15,16,49,23.20
2008,09,15,16,50,23.20
2008,09,15,16,51,23.20
2008,09,15,16,52,23.10
2008,09,15,16,53,23.10
2008,09,15,16,54,23.10
2008,09,15,16,55,23.10
2008,09,15,16,56,23.10
2008,09,15,16,57,23.00
2008,09,15,16,58,23.00
2008,09,15,16,59,23.00
2008,09,15,17,00,23.00
2008,09,15,17,01,23.00
2008,09,15,17,02,23.00
2008,09,15,17,03,22.90
2008,09,15,17,04,23.00
2008,09,15,17,05,23.00
2008,09,15,17,06,23.00
2008,09,15,17,07,22.90
2008,09,15,17,08,22.90
2008,09,15,17,09,22.90
2008,09,15,17,10,23.00
2008,09,15,17,11,23.10
2008,09,15,17,12,23.10
2008,09,15,17,13,23.10
2008,09,15,17,14,23.10
2008,09,15,17,15,23.10
2008,09,15,17,16,23.10
2008,09,15,17,17,23.00
2008,09,15,17,18,23.00
2008,09,15,17,19,23.00